Regional Weather Roundup
Issued by NWS

Home | Current Version | Previous Version | Text Only | Print | Product List | Glossary On
Versions: 1 2 3 4 5 6 7 8 9 10 11 12 13 14 15 16 17 18 19 20 21 22 23 24 25 26 27 28 29 30 31 32 33 34 35 36 37 38 39 40 41 42 43 44 45 46 47 48 49 50
484
ASUS44 KLIX 301705
RWRLA
LOUISIANA WEATHER ROUNDUP
NATIONAL WEATHER SERVICE NEW ORLEANS LA
1200 PM CDT WED JUL 30 2014

NOTE: "FAIR" INDICATES FEW OR NO CLOUDS BELOW 12,000 FEET WITH NO
      SIGNIFICANT WEATHER AND/OR OBSTRUCTIONS TO VISIBILITY.
      SKY/WX - SKY CONDITION AND SIGNIFICANT WEATHER.
      TMP - AIR TEMPERATURE.    DP   - DEWPOINT TEMPERATURE.
      RH  - RELATIVE HUMIDITY.  PRES - PRESSURE.
      HX  - HEAT INDEX.         WCI  - WIND CHILL INDEX.

*  THESE STATIONS ARE NOT NWS OR FAA STATIONS AND ARE NOT UNDER
   NWS QUALITY CONTROL.

LAZ040-048-061>063-065-066-069-301800-
SOUTHEAST LOUISIANA

CITY           SKY/WX    TMP DP  RH WIND       PRES   REMARKS
N.O. AUDUBON     N/A     87  64  45 MISG        N/A
N.O. INTL ARPT PTSUNNY   85  61  44 NE12      30.07F
N.O. LAKEFRONT FAIR      81  60  48 NE7       30.08F
N.O. DOWNTOWN* FAIR      84  59  42 N5        30.07F
SLIDELL        FAIR      83  61  47 NE6       30.06F
BATON ROUGE    FAIR      83  60  45 E5        30.08F
BOOTHVILLE     FAIR      84  69  60 NE7       30.06F
BELLE CHASSE   FAIR      84  62  47 NE8       30.06F
BOGALUSA*        N/A     82  60  48 N6        30.09F
GALLIANO*      NOT AVBL
NEW ROADS*     FAIR      81  63  53 CALM      30.09F
GONZALES*      FAIR      81  64  55 CALM      30.07F
HAMMOND*       FAIR      84  57  39 CALM      30.09F
HOUMA*         MOSUNNY   88  64  45 N5        30.07S
PORT FOURCHON* MOSUNNY   86  70  58 N7        30.07F

$$

LAZ041-044-053-054-301800-
SOUTHWEST LOUISIANA

CITY           SKY/WX    TMP DP  RH WIND       PRES   REMARKS
LAKE CHARLES   FAIR      85  67  54 E7        30.07F
LAFAYETTE      FAIR      85  63  47 N7        30.08F
PATTERSON      FAIR      84  68  58 N8        30.11S
SALT POINT       N/A     86  71  60 VRB3      30.06F
NEW IBERIA     FAIR      86  64  47 NE8       30.08F
CHENAULT AIRPK SUNNY     84  66  54 NE3       30.09F

$$

LAZ027-028-301800-
CENTRAL LOUISIANA

CITY           SKY/WX    TMP DP  RH WIND       PRES   REMARKS
FORT POLK      FAIR      84  60  44 SE6       30.10F
ALEXANDRIA INT FAIR      85  57  38 SE5       30.09F
ALEXANDRIA     FAIR      84  62  47 VRB3      30.10F

$$

LAZ001-002-301800-
NORTHWEST LOUISIANA

CITY           SKY/WX    TMP DP  RH WIND       PRES   REMARKS
SHREVEPORT     PTSUNNY   84  61  45 SE10      30.10F
BARKSDALE AFB  FAIR      83  61  47 SE9       30.10F
DTN SHREVEPORT FAIR      83  59  44 S8        30.10F

$$

LAZ014-016-301800-
NORTHEAST LOUISIANA

CITY           SKY/WX    TMP DP  RH WIND       PRES   REMARKS
MONROE         FAIR      82  59  45 VRB3      30.12F
TALLULAH       FAIR      83  57  41 N8        30.11F

$$




USA.gov is the U.S. government's official web portal to all federal, state and local government web resources and services.